LKMT Weather Reports


time (UTC)temp
C
wind
direction
speed
KPH
gust
KPH
rain 1hr
cm
rain 24hr
cm
rain mn
cm
humidity
%
barometer
mb
20260905082235 17 240 19.3 0.0 0.00 0.00 0.00 77
20260905080234 17 230 19.3 0.0 0.00 0.00 0.00 77 1018.0
20260905073230 16 230 14.5 0.0 0.00 0.00 0.00 87 1018.0
20260905072535 16 0 8.0 0.0 0.00 0.00 0.00 87
20260905070232 16 270 8.0 0.0 0.00 0.00 0.00 82 1017.0
20260905063231 16 250 16.1 0.0 0.00 0.00 0.00 82 1017.0
20260905062235 17 220 19.3 0.0 0.00 0.00 0.00 77
20260905060237 16 220 19.3 0.0 0.00 0.00 0.00 82 1017.0
20260905053223 16 220 19.3 0.0 0.00 0.00 0.00 87 1017.0
20260905052231 17 220 19.3 0.0 0.00 0.00 0.00 72
20260905050234 17 220 16.1 0.0 0.00 0.00 0.00 82 1016.0
20260905043224 17 220 14.5 0.0 0.00 0.00 0.00 82 1015.0
20260905042636 17 250 11.3 0.0 0.00 0.00 0.00 72
20260905042404 17 240 16.1 0.0 0.00 0.00 0.00 82 1016.0
20260905040237 17 260 12.9 0.0 0.00 0.00 0.00 77 1015.0
20260905033224 18 0 3.2 0.0 0.00 0.00 0.00 63 1015.0
20260905032235 20 0 3.2 0.0 0.00 0.00 0.00 60
20260905030234 20 120 8.0 0.0 0.00 0.00 0.00 60 1014.0
20260905023224 18 120 8.0 0.0 0.00 0.00 0.00 63 1014.0
20260905022233 20 110 11.3 0.0 0.00 0.00 0.00 60
20260905020233 18 110 9.7 0.0 0.00 0.00 0.00 63 1014.0
20260905013223 18 90 11.3 0.0 0.00 0.00 0.00 68 1014.0
20260905012550 20 80 11.3 0.0 0.00 0.00 0.00 64
20260905010233 18 80 9.7 0.0 0.00 0.00 0.00 68 1014.0
20260905003224 18 70 11.3 0.0 0.00 0.00 0.00 68 1014.0
20260905002247 20 30 14.5 0.0 0.00 0.00 0.00 64
20260905000233 18 40 16.1 0.0 0.00 0.00 0.00 68 1013.0
20260904233224 20 10 22.5 0.0 0.00 0.00 0.00 60 1012.0
20260904232319 21 360 22.5 0.0 0.00 0.00 0.00 60
20260904230234 21 360 22.5 0.0 0.00 0.00 0.00 60 1012.0
20260904223224 22 230 20.9 0.0 0.00 0.00 0.00 53 1011.0
20260904222649 23 230 22.5 0.0 0.00 0.00 0.00 47
20260904220233 22 230 20.9 0.0 0.00 0.00 0.00 56 1011.0
20260904213224 22 220 19.3 0.0 0.00 0.00 0.00 49 1010.0
20260904212233 23 220 19.3 0.0 0.00 0.00 0.00 47
20260904210233 23 220 20.9 0.0 0.00 0.00 0.00 47 1010.0
20260904203223 23 190 12.9 0.0 0.00 0.00 0.00 47 1011.0
20260904202231 25 180 14.5 0.0 0.00 0.00 0.00 47
20260904200236 23 170 11.3 0.0 0.00 0.00 0.00 50 1011.0
20260904193224 25 190 9.7 0.0 0.00 0.00 0.00 44 1011.0
20260904192531 26 210 19.3 0.0 0.00 0.00 0.00 41
20260904190236 26 220 19.3 0.0 0.00 0.00 0.00 44 1011.0
20260904183230 26 210 24.1 0.0 0.00 0.00 0.00 41 1011.0
20260904182249 27 210 29.0 0.0 0.00 0.00 0.00 39
20260904180234 27 210 27.4 0.0 0.00 0.00 0.00 39 1010.0
20260904173231 27 210 29.0 0.0 0.00 0.00 0.00 39 1010.0
20260904172250 27 220 29.0 0.0 0.00 0.00 0.00 39
20260904170234 27 220 25.7 0.0 0.00 0.00 0.00 42 1010.0
20260904163231 27 220 27.4 0.0 0.00 0.00 0.00 42 1011.0
20260904162535 27 230 29.0 0.0 0.00 0.00 0.00 39
20260904160234 27 230 29.0 0.0 0.00 0.00 0.00 39 1011.0
20260904153231 27 220 27.4 0.0 0.00 0.00 0.00 42 1012.0
20260904152309 27 220 29.0 0.0 0.00 0.00 0.00 42
20260904150233 27 220 27.4 0.0 0.00 0.00 0.00 44 1012.0
20260904143231 27 220 32.2 0.0 0.00 0.00 0.00 42 1012.0
20260904142247 27 220 32.2 0.0 0.00 0.00 0.00 42
20260904140234 27 220 32.2 0.0 0.00 0.00 0.00 44 1013.0
20260904133230 26 230 32.2 0.0 0.00 0.00 0.00 47 1013.0
20260904132525 27 230 32.2 0.0 0.00 0.00 0.00 44
20260904130241 27 240 32.2 0.0 0.00 0.00 0.00 44 1014.0
20260904123231 26 230 24.1 0.0 0.00 0.00 0.00 47 1014.0
20260904122235 26 230 25.7 0.0 0.00 0.00 0.00 47
20260904120235 26 220 27.4 0.0 0.00 0.00 0.00 47 1015.0
20260904113231 25 210 29.0 0.0 0.00 0.00 0.00 50 1015.0
20260904112236 23 210 29.0 0.0 0.00 0.00 0.00 53
20260904110233 23 220 29.0 0.0 0.00 0.00 0.00 53 1016.0
20260904103231 23 230 27.4 0.0 0.00 0.00 0.00 53 1016.0
20260904102651 22 230 29.0 0.0 0.00 0.00 0.00 56
20260904100234 23 230 29.0 0.0 0.00 0.00 0.00 53 1016.0
20260904093230 22 230 32.2 0.0 0.00 0.00 0.00 56 1017.0
20260904092251 22 230 29.0 0.0 0.00 0.00 0.00 53
20260904090235 22 230 29.0 0.0 0.00 0.00 0.00 53 1017.0
20260904083231 21 220 24.1 0.0 0.00 0.00 0.00 60 1018.0